Voltar ao catálogo

STARLINK-4024

AtivoComunicaçõesVLEO
NORAD 52599·PAYLOAD·🇺🇸 United States

Lançado May 14, 2022 de Cape Canaveral Space Force Station

Loading…

Próximas Passagens (próximas 24 horas)

TLE

AtualizadoSource: CelesTrak SupGP

Época: Sep 14, 2026, 21:45 UTC

1 52599C 22052B   26257.90673611 -.00052928  00000+0 -17022-2 0  2574
2 52599  53.1562 135.3863 0001298  92.8313  25.9334 15.31724155    10

Acompanhe STARLINK-4024 em tempo real com AllMySat

Download on the App Store